﻿TARİH;E-DOLUM ABONMAN TALEP EDEN KART SAYISI;E-DOLUM ABONMAN TALEP ADEDİ;AKTİFLEŞTİRİLMİŞ E-DOLUM ABONMAN ADEDİ
2020-01-01;45;45;44
2020-01-02;58;58;58
2020-01-03;40;40;40
2020-01-04;24;24;24
2020-01-05;32;32;31
2020-01-06;74;74;72
2020-01-07;48;48;46
2020-01-08;75;75;73
2020-01-09;46;46;46
2020-01-10;57;57;57
2020-01-11;33;33;33
2020-01-12;28;29;29
2020-01-13;49;49;48
2020-01-14;25;25;25
2020-01-15;34;34;34
2020-01-16;23;23;23
2020-01-17;32;32;32
2020-01-18;18;18;18
2020-01-19;16;16;16
2020-01-20;23;24;23
2020-01-21;19;19;19
2020-01-22;24;24;22
2020-01-23;17;17;17
2020-01-24;27;27;27
2020-01-25;16;16;16
2020-01-26;33;33;33
2020-01-27;40;41;41
2020-01-28;32;32;32
2020-01-29;15;15;15
2020-01-30;23;23;23
2020-01-31;27;27;27
2020-02-01;33;33;33
2020-02-02;215;215;215
2020-02-03;167;167;167
2020-02-04;74;74;73
2020-02-05;79;79;79
2020-02-06;68;68;68
2020-02-07;79;79;78
2020-02-08;48;48;48
2020-02-09;126;126;124
2020-02-10;173;173;173
2020-02-11;89;89;89
2020-02-12;92;92;91
2020-02-13;65;65;65
2020-02-14;71;71;71
2020-02-15;56;56;56
2020-02-16;132;132;132
2020-02-17;208;208;208
2020-02-18;111;111;111
2020-02-19;63;63;63
2020-02-20;47;48;48
2020-02-21;45;45;45
2020-02-22;27;27;27
2020-02-23;60;60;60
2020-02-24;121;121;121
2020-02-25;57;57;57
2020-02-26;48;49;48
2020-02-27;46;46;46
2020-02-28;26;26;26
2020-02-29;29;29;29
2020-03-01;37;37;36
2020-03-02;96;97;97
2020-03-03;110;110;110
2020-03-04;173;174;174
2020-03-05;106;106;106
2020-03-06;71;71;71
2020-03-07;63;63;63
2020-03-08;99;99;99
2020-03-09;148;148;147
2020-03-10;122;122;120
2020-03-11;145;145;145
2020-03-12;78;78;76
2020-03-13;19;20;20
2020-03-14;11;11;11
2020-03-15;12;12;12
2020-03-16;13;13;13
2020-03-17;7;7;7
2020-03-18;11;11;11
2020-03-19;10;10;10
2020-03-20;8;8;7
2020-03-21;1;1;1
2020-03-22;3;3;3
2020-03-23;7;7;7
2020-03-24;3;3;3
2020-03-25;1;1;1
2020-03-26;6;6;6
2020-03-27;1;1;1
2020-03-28;1;1;1
2020-03-29;2;2;2
2020-03-30;8;8;8
2020-03-31;4;4;4
2020-04-01;6;6;6
2020-04-02;4;4;4
2020-04-03;1;1;1
2020-04-04;3;3;3
2020-04-05;5;5;5
2020-04-06;10;10;10
2020-04-07;12;12;12
2020-04-08;6;6;6
2020-04-09;6;6;6
2020-04-10;2;2;2
2020-04-13;15;15;15
2020-04-14;5;5;5
2020-04-15;6;6;6
2020-04-16;3;3;3
2020-04-17;7;7;7
2020-04-19;4;4;4
2020-04-20;5;5;5
2020-04-21;1;1;1
2020-04-22;1;1;1
2020-04-25;1;1;1
2020-04-26;2;2;2
2020-04-27;7;7;7
2020-04-28;1;1;1
2020-04-30;2;2;2
2020-05-02;1;1;1
2020-05-04;4;4;4
2020-05-05;1;1;1
2020-05-06;8;9;9
2020-05-07;3;3;3
2020-05-08;3;3;3
2020-05-10;1;1;1
2020-05-11;5;5;5
2020-05-12;2;2;2
2020-05-13;2;2;2
2020-05-14;4;4;4
2020-05-17;1;2;0
2020-05-20;6;6;6
2020-05-21;2;2;2
2020-05-26;4;4;4
2020-05-27;14;14;14
2020-05-28;8;8;8
2020-05-29;6;6;6
2020-05-31;5;5;5
2020-06-01;27;27;27
2020-06-02;10;10;10
2020-06-03;17;17;17
2020-06-04;6;6;6
2020-06-05;9;10;10
2020-06-06;6;6;6
2020-06-07;10;10;10
2020-06-08;16;16;16
2020-06-09;7;7;7
2020-06-10;8;8;8
2020-06-11;10;10;10
2020-06-12;8;8;8
2020-06-13;3;3;3
2020-06-14;6;6;6
2020-06-15;6;6;6
2020-06-16;8;8;8
2020-06-17;4;4;4
2020-06-18;1;1;1
2020-06-19;2;2;2
2020-06-20;4;4;4
2020-06-21;3;3;3
2020-06-22;9;9;9
2020-06-23;4;4;4
2020-06-24;3;3;3
2020-06-25;4;4;4
2020-06-26;11;11;11
2020-06-27;5;5;5
2020-06-28;5;5;5
2020-06-29;11;11;11
2020-06-30;8;8;8
2020-07-01;18;18;18
2020-07-02;11;11;11
2020-07-03;12;12;12
2020-07-04;4;4;4
2020-07-05;6;6;6
2020-07-06;19;19;19
2020-07-07;13;13;13
2020-07-08;12;12;12
2020-07-09;7;7;7
2020-07-10;14;14;14
2020-07-11;5;5;5
2020-07-12;6;6;6
2020-07-13;5;5;5
2020-07-14;5;5;5
2020-07-15;7;7;7
2020-07-16;7;7;7
2020-07-17;7;7;7
2020-07-18;3;3;3
2020-07-19;5;5;5
2020-07-20;11;11;11
2020-07-21;5;5;4
2020-07-22;6;6;6
2020-07-23;4;4;4
2020-07-24;3;3;3
2020-07-25;2;2;2
2020-07-26;3;3;3
2020-07-27;6;6;6
2020-07-28;3;3;3
2020-08-02;2;2;2
2020-08-03;11;11;11
2020-08-04;43;43;43
2020-08-05;20;20;19
2020-08-06;10;10;10
2020-08-07;11;11;11
2020-08-08;7;7;7
2020-08-09;3;3;3
2020-08-10;12;12;12
2020-08-11;15;15;15
2020-08-12;5;5;5
2020-08-13;6;6;6
2020-08-14;3;3;3
2020-08-15;7;7;7
2020-08-16;7;7;7
2020-08-17;11;11;11
2020-08-18;6;6;6
2020-08-19;6;6;6
2020-08-20;10;10;10
2020-08-21;2;2;2
2020-08-22;6;6;6
2020-08-23;7;7;7
2020-08-24;7;7;7
2020-08-25;4;4;4
2020-08-26;7;7;7
2020-08-27;6;6;6
2020-08-28;5;5;5
2020-08-29;2;2;2
2020-08-30;2;2;2
2020-08-31;11;11;11
2020-09-01;8;8;8
2020-09-02;8;8;8
2020-09-03;16;16;16
2020-09-04;23;23;23
2020-09-05;7;7;7
2020-09-06;13;13;13
2020-09-07;23;23;23
2020-09-08;10;10;10
2020-09-09;8;8;8
2020-09-10;13;13;12
2020-09-11;10;10;10
2020-09-12;4;4;4
2020-09-13;9;9;9
2020-09-14;13;13;13
2020-09-15;9;9;9
2020-09-16;17;17;17
2020-09-17;8;8;8
2020-09-18;11;11;11
2020-09-19;4;4;4
2020-09-20;4;4;4
2020-09-21;12;12;12
2020-09-22;9;9;9
2020-09-23;10;10;10
2020-09-24;7;7;7
2020-09-25;3;3;3
2020-09-26;6;6;6
2020-09-27;8;8;8
2020-09-28;15;15;15
2020-09-29;9;9;9
2020-09-30;9;9;9
2020-10-01;9;9;9
2020-10-02;8;8;8
2020-10-03;7;7;7
2020-10-04;14;14;14
2020-10-05;37;37;37
2020-10-06;21;21;21
2020-10-07;27;27;27
2020-10-08;15;15;15
2020-10-09;11;11;11
2020-10-10;13;13;13
2020-10-11;16;16;16
2020-10-12;34;34;34
2020-10-13;15;15;15
2020-10-14;16;16;16
2020-10-15;18;18;18
2020-10-16;23;23;23
2020-10-17;10;10;10
2020-10-18;10;10;10
2020-10-19;27;27;27
2020-10-20;21;21;20
2020-10-21;16;16;16
2020-10-22;16;16;16
2020-10-23;4;4;4
2020-10-24;4;4;4
2020-10-25;7;7;7
2020-10-26;11;11;11
2020-10-27;13;13;13
2020-10-28;5;5;5
2020-10-29;16;16;16
2020-10-30;9;9;9
2020-10-31;7;7;7
2020-11-01;13;13;13
2020-11-02;36;37;37
2020-11-03;10;11;11
2020-11-04;24;24;24
2020-11-05;21;24;24
2020-11-06;17;18;17
2020-11-07;16;16;16
2020-11-08;22;22;22
2020-11-09;34;34;34
2020-11-10;20;20;20
2020-11-11;32;32;32
2020-11-12;20;22;22
2020-11-13;19;21;21
2020-11-14;171;171;142
2020-11-15;51;51;45
2020-11-16;210;211;176
2020-11-17;49;49;45
2020-11-18;39;39;36
2020-11-19;27;27;24
2020-11-20;25;25;25
2020-11-21;20;20;16
2020-11-22;34;34;28
2020-11-23;139;139;113
2020-11-24;24;24;22
2020-11-25;25;25;20
2020-11-26;22;22;19
2020-11-27;17;17;16
2020-11-28;11;11;11
2020-11-29;6;6;6
2020-11-30;12;12;9
2020-12-01;39;39;29
2020-12-02;28;28;27
2020-12-03;13;13;10
2020-12-04;18;18;16
2020-12-05;11;11;9
2020-12-06;20;20;19
2020-12-07;47;48;40
2020-12-08;11;11;11
2020-12-09;22;22;19
2020-12-10;17;17;16
2020-12-11;10;10;9
2020-12-12;12;12;8
2020-12-13;12;12;12
2020-12-14;38;38;35
2020-12-15;11;11;9
2020-12-16;19;19;19
2020-12-17;12;12;12
2020-12-18;6;6;6
2020-12-19;7;7;7
2020-12-20;6;6;6
2020-12-21;16;16;16
2020-12-22;7;7;7
2020-12-23;10;10;10
2020-12-24;11;11;10
2020-12-25;8;8;8
2020-12-26;4;4;4
2020-12-27;6;6;6
2020-12-28;12;12;11
2020-12-29;3;3;3
2020-12-30;9;9;8
2020-12-31;8;8;6
